Lapse_Rate
5.9 5.5 5.2 5.3 5.5 5.5 5.5 5.4 5.2 5.3 4.6 4.4 4.8 4.6 4.8 4.9 4.9 5.4 4.9 5.0 4.8 5.3 5.2 5.1 4.9 5.4 5.3 5.7 5.8 6.0 6.2 6.1 6.0 6.3 6.0 6.5 6.7 5.6 5.8 5.9 5.8 6.1 6.3
5.7 5.5 5.2 5.3 5.2 5.2 5.3 5.3 5.2 5.2 4.9 4.3 4.4 4.5 4.3 4.4 4.6 5.0 5.4 5.7 5.7 6.4 6.1 6.2 5.9 5.8 5.6 5.9 5.8 6.2 6.0 5.9 6.1 6.7 6.7 6.4 6.5 6.2 6.4 5.6 6.0 6.2 6.2
5.7 5.5 5.2 5.2 5.1 5.2 5.4 5.4 5.3 5.3 5.3 5.2 4.5 5.0 4.7 4.2 4.6 4.8 5.4 6.0 6.2 6.4 6.4 6.5 6.4 6.2 6.2 6.4 6.0 6.1 5.9 5.8 6.3 6.3 6.3 6.1 6.0 6.1 5.2 5.4 6.1 5.9 5.2
5.6 5.3 5.2 5.2 5.2 5.2 5.3 5.4 5.6 5.7 5.6 5.7 5.7 5.4 5.2 4.2 4.4 4.4 5.2 5.7 6.2 6.4 6.6 6.4 6.4 6.2 6.3 6.1 5.6 6.0 6.1 6.2 6.4 6.5 6.5 6.5 6.3 5.5 5.9 5.6 5.4 5.0 5.0
5.5 5.3 5.2 5.1 5.1 5.1 5.2 5.5 5.7 6.0 6.0 6.0 5.7 5.9 5.7 5.1 5.2 4.6 4.8 5.0 5.3 5.7 6.0 6.0 6.1 6.0 5.6 5.9 6.2 6.1 6.0 6.1 6.2 6.3 6.7 6.6 6.2 5.8 5.5 5.9 5.3 5.1 5.0
5.3 5.2 5.2 5.1 5.0 5.1 5.4 5.6 5.8 6.1 6.1 6.1 6.0 5.8 6.2 6.4 5.9 5.3 4.9 5.2 5.3 5.5 5.4 5.5 5.5 5.4 6.0 6.2 6.3 6.1 5.9 6.2 6.4 6.5 6.5 6.4 6.1 6.1 5.2 5.0 5.5 5.5 5.2
5.4 5.2 5.2 5.2 5.1 5.3 5.7 5.9 6.3 6.4 6.3 6.3 6.1 6.0 5.9 6.1 6.2 6.1 5.7 5.3 5.2 5.4 5.7 5.7 5.4 5.2 5.2 5.3 5.1 5.2 6.0 6.5 6.4 6.3 6.3 6.3 5.9 5.9 5.2 5.3 5.3 5.6 5.5
5.4 5.3 5.3 5.2 5.4 5.7 6.1 6.4 6.7 6.7 6.5 6.6 6.5 6.4 6.2 6.2 6.1 6.1 5.9 5.8 5.8 5.5 5.5 5.3 5.4 5.6 5.6 5.2 4.8 4.8 4.9 4.9 4.9 5.2 5.3 5.4 5.3 5.0 5.5 5.4 5.4 5.7 5.7
5.5 5.4 5.4 5.5 5.9 6.4 6.7 6.8 6.8 6.7 6.7 6.8 6.5 6.5 6.3 6.3 6.4 6.4 6.5 6.1 6.2 6.1 6.1 5.9 5.7 5.5 5.2 5.4 5.4 5.6 5.4 5.3 4.9 5.0 5.0 4.9 4.8 4.6 4.3 5.3 5.9 5.2 5.4
5.6 5.6 5.8 6.1 6.5 6.7 6.9 6.8 6.8 6.7 6.8 6.7 6.7 6.6 6.5 6.4 6.4 6.4 6.6 6.8 6.5 6.9 6.6 6.4 6.1 5.9 6.1 6.1 5.9 5.5 5.5 5.2 5.3 5.5 5.2 5.0 4.8 4.6 4.5 4.3 4.6 4.8 4.9
5.8 6.1 6.2 6.4 6.5 6.5 6.7 6.8 6.7 6.7 6.7 6.7 6.9 6.8 6.7 6.7 6.4 6.3 6.2 6.4 6.6 6.5 6.5 6.3 6.3 6.6 6.4 6.3 6.0 5.8 5.9 5.5 5.7 5.8 5.9 5.8 5.9 5.3 5.0 5.0 5.3 5.6 5.0
6.1 6.2 6.2 6.2 6.3 6.5 6.6 6.6 6.5 6.7 6.8 6.8 6.9 6.9 6.7 6.6 6.5 6.3 6.2 6.3 6.2 6.2 6.2 6.2 6.4 6.4 6.4 6.5 6.6 6.6 6.2 6.0 5.8 5.8 5.7 5.6 5.6 5.4 5.3 5.3 5.2 5.2 5.1
6.0 6.1 6.1 6.1 6.2 6.3 6.3 6.3 6.4 6.5 6.6 6.8 6.8 6.8 6.8 6.7 6.4 6.5 6.2 6.2 6.3 6.3 6.1 5.8 5.7 6.1 6.2 6.2 6.1 6.0 6.1 6.0 6.1 5.9 6.0 6.1 6.2 6.4 6.2 6.1 6.2 6.3 5.7
5.9 6.0 6.1 6.2 6.3 6.3 6.3 6.3 6.4 6.5 6.5 6.6 6.7 6.7 6.7 6.5 6.5 6.2 6.3 6.2 6.0 5.9 5.8 5.9 6.0 5.8 5.3 5.5 5.5 5.6 5.7 5.8 5.8 5.8 5.9 6.0 6.2 6.1 6.0 6.1 6.1 6.0 6.1
5.9 6.0 6.2 6.3 6.3 6.4 6.3 6.4 6.5 6.5 6.5 6.6 6.7 6.6 6.6 6.5 6.4 6.3 6.0 6.0 6.1 6.1 5.9 5.7 5.5 5.5 5.6 5.5 5.2 5.0 5.0 5.1 5.1 5.2 5.4 5.4 5.3 5.2 5.2 5.3 5.5 5.6 5.6
6.0 6.0 6.2 6.2 6.3 6.3 6.6 6.6 6.5 6.6 6.8 6.7 6.5 6.5 6.4 6.3 6.1 6.1 6.0 5.8 5.5 5.3 5.4 5.5 5.5 5.5 5.4 5.2 5.2 5.1 5.1 4.9 4.8 4.8 4.7 4.6 4.7 4.7 4.8 4.8 4.8 4.8 4.6
6.1 6.2 6.3 6.3 6.4 6.4 6.5 6.6 6.7 7.0 6.9 6.7 6.6 6.2 6.4 6.1 6.0 5.8 5.7 5.6 5.6 5.4 5.2 5.1 5.0 5.0 4.9 5.1 5.0 4.8 4.8 4.8 4.7 4.7 4.4 4.3 4.1 4.0 3.9 3.9 3.9 3.9 3.8
6.4 6.3 6.4 6.4 6.4 6.6 6.6 6.6 6.6 6.5 6.5 6.5 6.7 6.1 5.9 5.8 5.7 5.5 5.4 5.2 5.1 5.0 4.8 4.7 4.5 4.3 4.2 4.1 4.0 4.2 4.3 4.2 4.0 4.0 4.0 4.0 3.9 3.8 3.6 3.5 3.4 3.4 3.4
6.5 6.5 6.5 6.5 6.5 6.5 6.5 6.6 6.7 6.5 6.3 6.2 6.0 5.8 5.6 5.5 5.3 5.2 5.2 4.8 4.7 4.6 4.4 4.2 4.1 3.9 3.7 3.5 3.4 3.2 3.1 3.1 3.3 3.4 3.3 3.2 3.0 3.0 3.1 3.1 3.0 2.9 2.8
6.5 6.5 6.4 6.5 6.5 6.4 6.6 6.6 6.5 6.3 6.2 6.0 5.9 5.6 5.4 5.3 5.1 5.0 4.9 4.6 4.3 4.1 4.0 3.9 3.7 3.6 3.5 3.4 3.2 3.0 2.7 2.4 2.2 2.2 2.5 2.5 2.2 2.2 2.2 2.3 2.3 2.3 2.4
6.5 6.4 6.4 6.4 6.4 6.4 6.5 6.4 6.3 6.1 5.9 5.7 5.6 5.5 5.2 5.1 5.0 4.8 4.6 4.3 4.1 4.0 3.8 3.7 3.5 3.3 3.2 3.1 2.9 2.7 2.5 2.2 1.9 1.5 1.8 1.7 1.4 1.5 1.5 1.4 1.4 1.5 1.5
6.4 6.3 6.3 6.3 6.3 6.3 6.2 6.1 6.0 5.8 5.6 5.4 5.3 5.2 5.1 4.9 4.6 4.4 4.2 4.0 3.9 3.8 3.7 3.5 3.4 3.2 3.1 2.9 2.7 2.5 2.3 1.9 1.6 1.4 1.5 1.0 0.8 0.8 0.8 0.7 0.7 0.6 0.7
6.3 6.3 6.2 6.2 6.2 6.2 6.2 6.0 5.9 5.6 5.4 5.3 5.2 5.0 4.8 4.5 4.3 4.1 3.9 3.8 3.7 3.6 3.5 3.4 3.3 3.1 3.0 2.9 2.7 2.6 2.4 2.2 1.9 1.8 1.6 1.3 1.1 0.7 0.5 0.4 0.3 0.3 0.3
6.0 5.9 5.9 6.2 6.2 6.1 6.0 5.7 5.5 5.3 5.2 5.1 4.9 4.7 4.5 4.3 4.1 4.0 3.9 3.8 3.7 3.6 3.5 3.4 3.3 3.1 3.0 2.9 2.7 2.5 2.4 2.3 2.0 1.7 1.5 1.3 1.1 1.0 0.9 0.7 0.6 0.5 0.5
6.2 6.2 6.2 6.2 6.0 5.8 5.5 5.4 5.2 5.1 4.9 4.8 4.6 4.5 4.3 4.2 4.1 4.0 3.9 3.8 3.7 3.6 3.5 3.4 3.4 3.4 3.3 3.2 3.2 3.3 3.3 3.2 3.0 2.6 2.3 2.0 1.7 1.6 1.5 1.5 1.5 1.5 1.4
6.1 6.0 5.9 5.7 5.5 5.3 5.1 5.0 4.9 4.9 4.7 4.6 4.5 4.3 4.2 4.1 4.0 4.0 4.0 4.0 4.0 4.0 4.0 4.1 4.2 4.3 4.2 4.1 4.0 3.8 3.4 3.2 2.9 2.7 2.5 2.3 2.1 2.1 2.1 2.1 2.1 2.1 2.1
Wind_Speed
7 8 10 9 10 9 9 10 12 13 14 16 16 15 16 18 19 17 17 17 16 15 13 12 13 11 7 7 6 6 3 6 10 6 3 7 10 13 16 15 15 12 13
3 6 7 7 7 7 9 10 12 13 14 15 16 15 16 17 18 20 18 16 16 17 15 14 15 10 11 11 6 8 7 5 3 6 5 4 4 3 2 3 13 9 12
3 1 3 3 4 4 5 9 11 12 13 12 16 17 16 17 18 18 18 18 16 17 16 16 17 16 17 12 11 10 9 7 5 4 4 4 1 2 2 3 11 11 15
7 3 2 0 3 3 2 3 7 10 12 12 14 16 15 15 17 17 17 18 17 17 18 18 18 20 22 16 15 14 11 10 10 9 6 5 3 5 6 3 7 7 11
6 5 3 4 2 2 3 2 4 8 10 10 12 14 15 14 12 16 15 16 17 18 18 18 19 25 33 28 16 17 15 12 11 10 11 8 7 6 9 6 1 6 5
6 6 7 7 8 5 5 6 8 7 9 12 11 14 16 13 25 25 19 13 16 17 17 18 19 26 22 31 31 33 27 16 16 12 11 10 12 10 8 8 3 2 2
6 7 7 8 8 8 9 9 8 9 9 11 14 13 16 17 30 25 25 13 15 17 19 18 17 16 23 17 23 25 27 30 21 14 14 14 13 14 12 9 10 9 5
7 7 8 7 8 8 9 9 8 8 10 10 11 14 13 16 30 27 24 14 14 17 18 19 19 20 23 19 16 16 18 17 18 13 14 13 15 15 14 8 5 4 5
6 5 7 8 7 8 8 8 8 7 7 8 9 12 13 14 29 28 20 13 14 14 15 17 17 18 30 29 17 16 16 16 21 28 27 28 29 31 24 9 11 6 5
5 5 2 4 5 5 6 6 6 7 7 5 8 8 18 14 26 28 21 10 13 11 13 14 28 24 31 31 17 16 16 15 14 13 13 16 22 22 26 14 10 8 7
4 5 4 2 4 3 2 4 4 4 5 6 6 7 9 13 14 26 26 11 9 9 9 10 11 26 29 30 26 16 16 12 13 12 11 11 12 13 11 12 12 8 9
6 5 5 4 4 5 6 5 5 5 4 5 8 7 7 9 21 22 24 21 17 8 9 7 9 24 25 27 20 27 24 13 10 10 11 12 12 12 11 10 17 13 6
5 5 5 5 5 5 6 7 6 7 6 7 7 6 7 8 8 21 21 21 19 9 7 13 18 19 20 15 26 24 17 10 10 11 11 10 9 9 11 11 18 19 13
5 4 5 4 4 6 6 6 5 5 5 6 6 7 7 7 8 8 8 7 14 10 10 3 5 7 8 8 8 11 9 9 9 9 9 8 8 10 10 9 9 9 6
5 4 4 4 4 5 5 3 4 4 5 4 4 5 5 5 7 13 12 7 7 8 7 2 2 2 4 5 6 7 8 8 8 8 9 10 9 10 9 9 9 8 8
4 5 3 3 3 3 2 4 7 8 7 8 9 6 4 12 15 17 17 18 12 16 6 6 6 6 6 5 4 4 4 5 6 7 8 9 9 9 10 9 9 9 9
5 4 3 4 3 3 2 3 2 3 4 5 6 11 15 13 15 15 17 17 18 12 6 6 7 7 7 8 5 4 4 4 6 6 7 7 8 9 10 9 9 9 9
5 4 2 3 3 3 2 2 2 2 1 3 5 11 17 17 17 14 16 14 8 10 8 7 7 8 8 8 9 9 4 3 5 6 6 7 7 9 8 9 9 10 11
3 4 2 2 3 1 2 2 2 2 2 2 2 8 15 19 15 15 15 6 6 7 7 8 7 7 8 8 7 7 8 7 3 2 2 4 5 7 7 8 8 11 10
3 4 1 1 1 2 2 2 2 2 3 3 5 5 5 6 5 5 5 6 6 6 6 7 7 7 7 7 7 8 8 8 8 4 2 3 2 5 6 7 8 9 9
3 5 1 1 3 2 3 2 2 2 2 3 3 2 3 3 5 5 6 6 5 6 6 6 6 6 6 7 7 7 8 7 8 6 5 3 3 4 5 6 6 8 9
2 2 2 2 2 3 3 2 2 3 4 4 3 3 6 4 5 5 6 5 4 9 11 9 6 9 10 7 7 6 7 7 7 9 3 3 4 5 5 5 5 6 7
3 2 2 3 2 2 2 2 2 3 3 3 3 4 4 3 3 4 5 4 8 9 11 11 11 10 11 13 14 12 6 7 11 12 5 3 4 4 4 5 6 7 6
3 2 2 3 3 2 3 2 2 2 2 3 3 3 3 3 4 4 3 7 9 10 12 14 14 13 13 13 14 16 15 15 15 9 14 5 5 7 7 6 6 7 7
2 3 2 2 2 2 1 1 2 2 2 3 3 3 4 4 5 4 8 9 9 11 12 14 11 14 14 18 19 15 11 14 10 12 13 13 5 7 4 4 5 7 8
3 2 3 2 2 1 1 2 2 2 3 3 3 3 4 4 4 5 8 8 11 12 12 13 14 16 17 15 11 14 14 12 8 10 12 13 6 3 4 5 8 7 9
Wind_Direction
21 26 32 18 15 8 6 14 9 10 9 6 354 1 6 11 7 8 11 7 7 6 11 359 12 346 360 5 359 346 346 276 255 265 275 211 231 231 233 228 226 201 199
36 30 38 25 24 14 19 17 12 14 11 14 5 360 10 16 16 12 11 7 12 9 14 12 17 9 16 17 0 19 4 328 353 294 265 262 201 32 69 45 21 264 198
155 83 45 27 19 4 24 26 23 19 15 18 14 6 10 15 20 15 12 13 14 14 10 21 23 20 25 19 26 28 2 349 357 296 335 359 9 81 168 80 30 23 9
155 154 111 5 313 342 0 31 32 25 22 19 25 13 7 21 23 19 17 17 14 15 17 17 18 29 35 22 29 27 18 22 18 21 22 30 349 358 353 13 81 50 38
48 49 124 198 294 352 12 91 58 35 25 26 26 24 15 15 31 30 23 20 20 18 17 19 18 27 37 36 39 34 31 36 37 35 40 30 9 7 344 353 300 140 85
54 45 41 35 31 25 44 44 56 47 42 24 29 28 24 18 24 37 37 30 27 28 23 23 22 20 21 33 38 45 46 41 44 43 40 30 19 359 336 336 324 47 106
55 47 37 40 35 27 27 41 33 48 38 40 27 32 27 25 21 30 37 34 30 26 28 24 26 23 20 22 30 34 40 42 44 41 42 32 22 2 345 352 33 50 43
36 40 38 41 37 34 29 27 41 29 44 36 35 27 31 28 27 25 30 30 38 33 25 31 28 25 27 22 23 31 36 34 34 36 34 30 29 16 8 338 347 89 67
83 31 38 34 39 33 34 21 26 37 37 46 41 35 31 28 30 28 23 31 28 34 30 27 35 32 32 31 27 29 30 31 26 32 36 33 31 30 20 10 26 15 72
114 113 4 71 56 29 22 38 23 26 24 51 53 53 41 27 26 28 28 22 29 25 28 27 31 34 35 35 32 26 28 17 16 18 23 21 27 21 19 23 18 27 47
87 116 127 130 162 122 9 36 52 30 19 24 56 55 43 37 21 28 26 21 27 27 24 21 25 33 35 38 36 33 31 14 18 23 22 22 24 21 11 9 17 19 47
114 103 75 75 49 66 54 31 25 23 30 32 34 36 41 36 25 20 23 24 21 23 24 22 23 30 34 37 38 33 30 25 25 26 26 22 17 14 2 1 8 14 45
106 90 64 87 53 42 71 51 32 18 28 22 30 27 23 27 18 17 13 15 12 14 357 27 26 35 37 33 38 32 24 25 27 29 24 18 11 4 352 7 9 6 21
110 85 98 74 82 67 47 70 53 32 24 34 18 22 19 16 4 7 0 355 352 353 348 10 19 31 37 36 36 37 31 23 28 26 22 15 7 9 10 6 8 8 16
106 87 81 61 34 97 85 39 91 62 50 54 30 31 15 8 0 4 360 349 343 336 327 13 4 9 38 39 29 35 29 21 20 24 24 19 12 12 8 7 10 10 12
107 87 24 53 48 37 46 139 75 114 89 85 70 58 22 3 4 4 1 349 359 7 13 18 18 15 20 38 34 29 40 30 17 25 23 23 12 11 8 8 10 12 5
82 70 98 50 33 31 25 21 81 154 131 99 79 50 33 10 357 5 2 10 16 24 16 16 16 12 7 11 15 22 22 26 25 30 29 30 13 5 4 7 5 6 1
109 70 53 58 44 16 11 12 30 15 35 155 111 60 27 9 344 9 19 20 10 18 15 14 13 11 6 3 4 1 1 22 22 20 23 25 13 1 2 5 4 358 350
116 69 350 71 95 276 319 14 29 16 12 36 10 53 26 349 352 19 35 35 15 13 10 8 10 8 2 358 357 357 355 359 3 25 26 31 8 354 355 360 359 353 345
112 113 104 19 64 23 15 12 27 21 1 26 60 45 13 345 350 10 36 37 23 8 8 3 6 3 357 358 358 358 355 354 350 0 41 34 14 349 354 356 349 347 346
126 131 125 270 67 50 358 20 16 22 12 24 74 123 39 331 5 5 25 34 21 8 5 2 358 354 356 358 1 358 347 340 343 346 37 11 13 351 356 350 345 342 336
107 100 91 58 61 55 11 17 24 19 15 14 10 36 26 24 14 2 20 27 18 12 2 4 355 353 349 2 358 341 342 339 338 334 5 21 5 342 347 342 338 328 333
108 101 107 98 34 163 226 23 43 43 22 355 12 11 11 21 4 5 10 20 15 5 3 6 355 332 339 358 344 348 333 324 320 333 1 359 347 339 331 333 330 333 332
113 109 102 104 83 342 71 344 29 72 38 11 13 10 10 11 358 3 20 20 6 2 11 351 319 318 348 350 340 321 317 342 354 9 1 357 341 328 326 343 334 330 321
106 105 86 80 82 51 59 21 24 39 29 11 11 6 5 5 359 6 14 358 17 14 340 314 338 339 336 326 310 315 351 346 16 13 357 329 309 315 345 326 319 316 315
119 100 81 56 82 76 39 17 24 30 32 24 353 9 15 4 355 16 341 21 7 334 331 334 319 316 312 311 326 334 329 332 0 354 337 315 317 330 326 335 331 324 314